Location: Izdebno
(52.6670°N, 16.2170°E)
Time: 19:02:46
(UTC+01:00)

Transit 2A - Pass Details

Date: 31 January 2023
Orbit: 591 x 964 km, 66.7° (Epoch: 21 March)

Event Time Altitude Azimuth Distance (km) Brightness Sun altitude
Rises 19:07:46 0° 237° (WSW) 3,045 10.0 -22.6°
Reaches altitude 10° 19:10:03 10° 243° (WSW) 2,184 9.2 -22.9°
Maximum altitude 19:14:54 51° 319° (NW) 963 6.7 -23.7°
Enters shadow 19:17:37 27° 22° (NNE) 1,490 7.3 -24.1°
Drops below altitude 10° 19:20:22 10° 35° (NE) 2,443 - -24.5°
Sets 19:23:02 0° 41° (NE) 3,440 - -24.9°
